Вернуться в каталог

DELTA 1 DEB

АктивенSSO
NORAD 10767·DEBRIS·🇺🇸 United States

Запущен Jul 29, 1976 с Vandenberg Space Force Base

Loading…

Ближайшие Пролёты (ближайшие 24 часа)

TLE

СвежийSource: Space-Track

Эпоха: Sep 14, 2026, 17:53 UTC

1 10767U 76077BQ  26257.74532127 -.00000027  00000-0  15589-3 0  9992
2 10767 102.4380 243.5452 0065233  80.5966  94.2617 12.31965302253897

Отслеживайте DELTA 1 DEB в реальном времени с AllMySat

Download on the App Store